Hourly Data Report for February 08, 2020

All times are specified in Local Standard Time (LST). Add 1 hour to adjust for Daylight Saving Time where and when it is observed.

OTTAWA INTL A
ONTARIO
Current Station Operator: NAVCAN

45°19'00.000" N
75°40'00.000" W
114.90 m
6106001
71628
YOW

Download Data

Hourly Data (February 2020)
Hourly Data Report for February 8, 2020
TIME Temp Definition
°C
Dew Point Definition
°C
Rel Hum Definition
%
Wind Dir Definition
10's deg

Wind Spd Definition
km/h
Visibility Definition
km
Stn Press Definition
kPa
Hmdx Definition


Wind Chill Definition


Weather Definition


00:00 -14.5 -20.4 61 31 23 24.1 99.36   -24 Blowing Snow
01:00 -15.1 -20.9 62 28 20 24.1 99.48   -24 Blowing Snow
02:00 -15.9 -21.2 64 29 21 24.1 99.62   -26 LegendNANA
03:00 -16.7 -22.0 64 28 22 24.1 99.74   -27 LegendNANA
04:00 -18.5 -22.8 70 27 19 24.1 99.87   -28 Mainly Clear
05:00 -18.7 -22.8 70 28 21 24.1 100.01   -29 LegendNANA
06:00 -19.7 -23.7 71 27 17 24.1 100.14   -29 LegendNANA
07:00 -20.1 -23.7 73 28 19 24.1 100.31   -30 Clear
08:00 -20.4 -23.9 74 28 18 24.1 100.46   -30 LegendNANA
09:00 -20.0 -24.1 70 29 21 24.1 100.59   -31 LegendNANA
10:00 -19.5 -24.3 66 28 26 24.1 100.72   -31 Clear
11:00 -18.6 -24.2 62 28 22 24.1 100.82   -29 LegendNANA
12:00 -17.6 -23.8 59 27 13 24.1 100.90   -25 LegendNANA
13:00 -17.2 -23.8 57 25 21 24.1 100.92   -27 Clear
14:00 -16.6 -23.0 58 25 20 24.1 100.99   -26 LegendNANA
15:00 -15.7 -22.1 59 26 13 24.1 101.00   -23 LegendNANA
16:00 -15.3 -22.9 53 26 14 24.1 101.09   -23 Clear
17:00 -16.4 -23.4 55 25 9 24.1 101.17   -22 LegendNANA
18:00 -17.2 -24.1 55 25 10 24.1 101.26   -24 LegendNANA
19:00 -18.1 -24.0 61 25 7 24.1 101.34   -23 Clear
20:00 -18.2 -23.8 62 23 4 24.1 101.42   -21 LegendNANA
21:00 -19.2 -24.4 64 19 7 24.1 101.48   -25 LegendNANA
22:00 -20.3 -23.5 76 36 1 24.1 101.53   -21 Clear
23:00 -20.7 -23.7 78 16 4 24.1 101.56   -24 LegendNANA

Notes on Data Quality.

Legend

  • E = Estimated
  • M = Missing
  • NA = Not Available*
  • [empty] = Indicates an unobserved value
Date modified: